FW2834 Weather Reports


Display with metric or nautical units.
time (UTC)temp
F
wind
direction
speed
MPH
gust
MPH
rain 1hr
in
rain 24hr
in
rain mn
in
humidity
%
barometer
mb
20260504050513 52 157 0.0 3.0 0.00 0.00 0.00 55 1011.8
20260504050012 51 109 0.0 3.0 0.00 0.00 0.00 56 1011.7
20260504045510 51 109 0.0 4.0 0.00 0.00 0.00 55 1011.8
20260504045012 51 119 0.0 3.0 0.00 0.00 0.00 55 1011.9
20260504044519 51 105 0.0 3.0 0.00 0.00 0.00 55 1012.0
20260504044013 51 119 0.0 4.0 0.00 0.00 0.00 55 1011.9
20260504043510 51 119 0.0 4.0 0.00 0.00 0.00 55 1011.9
20260504043012 51 111 0.0 6.0 0.00 0.00 0.00 55 1011.9
20260504042509 51 121 1.0 9.0 0.00 0.00 0.00 54 1011.9
20260504042009 51 132 0.0 9.0 0.00 0.00 0.00 55 1012.0
20260504041508 51 92 0.0 2.0 0.00 0.00 0.00 55 1012.0
20260504041007 51 123 0.0 3.0 0.00 0.00 0.00 55 1012.1
20260504040507 51 123 0.0 3.0 0.00 0.00 0.00 54 1012.2
20260504040005 52 123 0.0 2.0 0.00 0.00 0.00 53 1012.3
20260504035505 52 123 0.0 3.0 0.00 0.00 0.00 53 1012.3
20260504035004 52 110 0.0 3.0 0.00 0.00 0.00 53 1012.4
20260504034506 52 101 0.0 2.0 0.00 0.00 0.00 52 1012.4
20260504034004 52 101 0.0 1.0 0.00 0.00 0.00 52 1012.5
20260504033504 53 101 0.0 1.0 0.00 0.00 0.00 52 1012.6
20260504033005 53 101 0.0 2.0 0.00 0.00 0.00 52 1012.5
20260504032504 53 101 0.0 2.0 0.00 0.00 0.00 51 1012.5
20260504032005 53 101 0.0 1.0 0.00 0.00 0.00 51 1012.5
20260504031505 54 101 0.0 0.0 0.00 0.00 0.00 51 1012.6
20260504031003 54 101 0.0 1.0 0.00 0.00 0.00 50 1012.6
20260504030504 54 101 0.0 1.0 0.00 0.00 0.00 50 1012.5
20260504030009 54 101 0.0 2.0 0.00 0.00 0.00 49 1012.6
20260504025507 54 101 0.0 2.0 0.00 0.00 0.00 49 1012.7
20260504025003 55 101 0.0 1.0 0.00 0.00 0.00 49 1012.7
20260504024505 55 101 0.0 1.0 0.00 0.00 0.00 49 1012.7
20260504024002 55 101 0.0 0.0 0.00 0.00 0.00 49 1012.8
20260504023506 55 101 0.0 0.0 0.00 0.00 0.00 49 1012.8
20260504023002 56 101 0.0 0.0 0.00 0.00 0.00 49 1012.8
20260504022502 56 101 0.0 0.0 0.00 0.00 0.00 47 1012.8
20260504022001 56 101 0.0 0.0 0.00 0.00 0.00 47 1012.8
20260504021501 56 101 0.0 2.0 0.00 0.00 0.00 47 1012.7
20260504021001 56 101 0.0 2.0 0.00 0.00 0.00 47 1012.7
20260504020503 56 101 0.0 3.0 0.00 0.00 0.00 46 1012.7
20260504020001 56 101 0.0 4.0 0.00 0.00 0.00 45 1012.6
20260504015501 56 101 0.0 0.0 0.00 0.00 0.00 45 1012.6
20260504015001 56 101 0.0 0.0 0.00 0.00 0.00 44 1012.6
20260504014502 56 101 0.0 0.0 0.00 0.00 0.00 44 1012.6
20260504014100 56 101 0.0 1.0 0.00 0.00 0.00 42 1012.6
20260504013602 56 101 0.0 3.0 0.00 0.00 0.00 42 1012.4
20260504013111 56 102 0.0 3.0 0.00 0.00 0.00 43 1012.4
20260504012601 57 98 1.0 3.0 0.00 0.00 0.00 43 1012.4
20260504012102 57 355 0.0 2.0 0.00 0.00 0.00 42 1012.5
20260504011600 57 146 0.0 2.0 0.00 0.00 0.00 42 1012.4
20260504011100 57 148 0.0 1.0 0.00 0.00 0.00 42 1012.4
20260504010559 57 148 0.0 1.0 0.00 0.00 0.00 41 1012.4
20260504010114 57 148 0.0 3.0 0.00 0.00 0.00 41 1012.4
20260504005601 57 148 0.0 3.0 0.00 0.00 0.00 39 1012.4
20260504005058 57 109 0.0 3.0 0.00 0.00 0.00 40 1012.4
20260504004625 57 109 0.0 2.0 0.00 0.00 0.00 40 1012.5
20260504004059 58 111 0.0 3.0 0.00 0.00 0.00 41 1012.5
20260504003601 58 111 0.0 3.0 0.00 0.00 0.00 40 1012.4
20260504003058 58 51 0.0 2.0 0.00 0.00 0.00 40 1012.4
20260504002558 58 51 0.0 2.0 0.00 0.00 0.00 40 1012.4
20260504002058 58 51 0.0 1.0 0.00 0.00 0.00 39 1012.4
20260504001607 58 51 0.0 1.0 0.00 0.00 0.00 38 1012.2
20260504001057 58 51 0.0 1.0 0.00 0.00 0.00 38 1012.1
20260504000558 59 51 0.0 1.0 0.00 0.00 0.00 38 1012.0
20260504000057 59 51 0.0 0.0 0.00 0.00 0.00 38 1011.9
20260503235557 59 51 0.0 2.0 0.00 0.00 0.00 37 1012.1
20260503235057 59 51 0.0 3.0 0.00 0.00 0.00 39 1012.0
20260503234557 59 51 0.0 4.0 0.00 0.00 0.00 36 1012.1
20260503234057 59 163 0.0 2.0 0.00 0.00 0.00 36 1011.9
20260503233556 59 163 0.0 9.0 0.00 0.00 0.00 36 1012.1
20260503233057 60 180 1.0 9.0 0.00 0.00 0.00 36 1012.2
20260503232555 60 139 0.0 4.0 0.00 0.00 0.00 35 1012.2
20260503232053 60 95 0.0 6.0 0.00 0.00 0.00 35 1012.6
20260503231555 60 100 1.0 6.0 0.00 0.00 0.00 35 1012.7
20260503231052 60 123 0.0 3.0 0.00 0.00 0.00 36 1012.8
20260503230551 60 123 0.0 3.0 0.00 0.00 0.00 35 1012.8
20260503230057 60 190 0.0 3.0 0.00 0.00 0.00 35 1012.9
20260503225548 60 176 0.0 3.0 0.00 0.00 0.00 34 1013.2
20260503225048 60 236 0.0 5.0 0.00 0.00 0.00 35 1013.3
20260503224548 61 115 1.0 5.0 0.00 0.00 0.00 37 1013.3
20260503224049 61 101 0.0 4.0 0.00 0.00 0.00 34 1013.3
20260503223548 61 100 1.0 4.0 0.00 0.00 0.00 33 1013.4
20260503223051 61 205 0.0 4.0 0.00 0.00 0.00 33 1013.4
20260503222546 61 227 1.0 4.0 0.00 0.00 0.00 32 1013.5
20260503222046 61 104 1.0 4.0 0.00 0.00 0.00 32 1013.5
20260503221545 61 266 1.0 4.0 0.00 0.00 0.00 33 1013.6
20260503221045 61 221 1.0 7.0 0.00 0.00 0.00 34 1013.5
20260503220545 61 227 1.0 7.0 0.00 0.00 0.00 34 1013.5
20260503220044 61 128 0.0 3.0 0.00 0.00 0.00 34 1013.8
20260503215543 61 128 0.0 3.0 0.00 0.00 0.00 35 1013.7
20260503215041 61 306 0.0 5.0 0.00 0.00 0.00 34 1013.7
20260503214541 61 184 0.0 4.0 0.00 0.00 0.00 33 1013.6
20260503214045 61 350 1.0 4.0 0.00 0.00 0.00 33 1013.6
20260503213540 61 355 0.0 3.0 0.00 0.00 0.00 33 1013.6
20260503213057 61 271 0.0 3.0 0.00 0.00 0.00 31 1013.7
20260503212539 61 292 0.0 2.0 0.00 0.00 0.00 32 1013.8
20260503212038 61 279 0.0 3.0 0.00 0.00 0.00 31 1014.1
20260503211537 61 294 1.0 3.0 0.00 0.00 0.00 34 1014.2
20260503211035 61 257 0.0 2.0 0.00 0.00 0.00 33 1014.2
20260503210035 61 254 0.0 5.0 0.00 0.00 0.00 32 1014.4
20260503205535 62 254 1.0 5.0 0.00 0.00 0.00 31 1014.6
20260503205033 62 342 0.0 4.0 0.00 0.00 0.00 38 1014.7
20260503204546 62 181 0.0 2.0 0.00 0.00 0.00 37 1014.5
20260503204033 62 180 0.0 3.0 0.00 0.00 0.00 33 1014.5
20260503203532 62 181 0.0 8.0 0.00 0.00 0.00 32 1014.4
20260503203033 62 257 1.0 8.0 0.00 0.00 0.00 32 1014.4
20260503202532 62 128 1.0 3.0 0.00 0.00 0.00 32 1014.5
20260503202031 62 246 1.0 3.0 0.00 0.00 0.00 32 1014.7
20260503201531 63 111 0.0 6.0 0.00 0.00 0.00 32 1014.7
20260503201030 63 89 1.0 6.0 0.00 0.00 0.00 29 1014.6
20260503200529 64 270 1.0 6.0 0.00 0.00 0.00 31 1014.6
20260503200030 64 280 0.0 2.0 0.00 0.00 0.00 31 1014.6
20260503195529 65 296 0.0 6.0 0.00 0.00 0.00 35 1014.6
20260503195030 65 294 1.0 6.0 0.00 0.00 0.00 31 1015.0
20260503194528 65 322 1.0 3.0 0.00 0.00 0.00 28 1014.8
20260503194028 65 221 1.0 3.0 0.00 0.00 0.00 31 1015.1
20260503193526 66 170 0.0 3.0 0.00 0.00 0.00 29 1015.3
20260503193034 66 233 1.0 3.0 0.00 0.00 0.00 29 1015.5
20260503192525 67 217 1.0 9.0 0.00 0.00 0.00 27 1015.6
20260503192024 66 275 2.0 9.0 0.00 0.00 0.00 32 1015.5
20260503191522 66 338 2.0 5.0 0.00 0.00 0.00 28 1015.7
20260503191023 66 360 1.0 4.0 0.00 0.00 0.00 29 1015.7
20260503190521 65 269 0.0 4.0 0.00 0.00 0.00 28 1015.7
20260503190019 65 268 2.0 6.0 0.00 0.00 0.00 31 1015.8
20260503185519 65 275 1.0 6.0 0.00 0.00 0.00 30 1015.8
20260503185019 64 78 0.0 5.0 0.00 0.00 0.00 33 1016.2
20260503184532 64 82 1.0 7.0 0.00 0.00 0.00 32 1016.2
20260503184017 64 130 1.0 4.0 0.00 0.00 0.00 32 1016.4
20260503183516 64 82 0.0 4.0 0.00 0.00 0.00 32 1016.3
20260503183015 64 89 1.0 4.0 0.00 0.00 0.00 29 1016.4
20260503182515 65 194 0.0 4.0 0.00 0.00 0.00 29 1016.4
20260503182014 65 262 1.0 11.0 0.00 0.00 0.00 29 1016.6
20260503181513 65 271 3.0 11.0 0.00 0.00 0.00 28 1016.6
20260503181013 65 98 0.0 3.0 0.00 0.00 0.00 33 1016.6
20260503180512 65 206 1.0 8.0 0.00 0.00 0.00 31 1016.6
20260503180021 65 227 2.0 8.0 0.00 0.00 0.00 28 1016.7
20260503175511 65 321 1.0 8.0 0.00 0.00 0.00 31 1016.7
20260503175013 65 128 1.0 8.0 0.00 0.00 0.00 30 1016.8
20260503174511 65 23 1.0 5.0 0.00 0.00 0.00 31 1016.8
20260503174012 64 215 2.0 5.0 0.00 0.00 0.00 30 1016.8
20260503173510 64 259 2.0 11.0 0.00 0.00 0.00 29 1016.9
20260503173009 64 136 5.0 11.0 0.00 0.00 0.00 26 1017.0
20260503172512 65 279 1.0 8.0 0.00 0.00 0.00 30 1017.3
20260503172007 65 161 2.0 8.0 0.00 0.00 0.00 27 1017.4
20260503171506 66 140 1.0 3.0 0.00 0.00 0.00 32 1017.5
20260503171005 65 41 1.0 7.0 0.00 0.00 0.00 33 1017.6
20260503170505 65 312 0.0 3.0 0.00 0.00 0.00 33 1017.7
20260503150537 58 262 2.0 6.0 0.00 0.00 0.00 37 1019.0
20260503131003 41 313 1.0 3.0 0.00 0.00 0.00 73 1019.2
20260503130501 41 278 0.0 1.0 0.00 0.00 0.00 74 1019.3
20260503120103 35 11 0.0 0.0 0.00 0.00 0.00 75 1019.1
20260503110541 33 11 0.0 0.0 0.00 0.00 0.00 72 1018.6
20260503081530 34 11 0.0 0.0 0.00 0.00 0.00 71 1017.9
20260503081029 34 11 0.0 0.0 0.00 0.00 0.00 71 1017.8
20260503080529 34 11 0.0 0.0 0.00 0.00 0.00 70 1017.9